Location: Unspecified
(41.1850°N, 73.2650°W)
Time: 16:02:29
(UTC+00:00)

Tiangong - Visible Passes

Search period start: 14 February 2026 00:00
Search period end: 24 February 2026 00:00
Orbit: 386 x 392 km, 41.5° (Epoch: 13 February)

Date Brightness Start Highest point End Pass type
(mag) Time Alt. Az. Time Alt. Az. Time Alt. Az.
14 Feb 1.5 01:04:48 10° W 01:04:56 11° W 01:04:56 11° W visible
15 Feb -2.1 00:06:29 10° W 00:09:28 76° WNW 00:09:28 76° WNW visible
15 Feb -2.2 23:08:07 10° W 23:11:18 89° NW 23:13:58 14° E visible
16 Feb 0.5 00:45:05 10° W 00:46:16 21° W 00:46:16 21° W visible
16 Feb -2.2 23:46:41 10° W 23:49:52 86° N 23:50:44 45° E visible
18 Feb -0.9 00:25:13 10° W 00:27:31 40° WSW 00:27:31 40° WSW visible
18 Feb -2.1 23:26:46 10° W 23:29:57 78° S 23:32:01 20° ESE visible
19 Feb 1.3 01:03:59 10° W 01:04:19 12° W 01:04:19 12° W visible
20 Feb -1.1 00:05:19 10° W 00:08:17 37° SSW 00:08:51 33° S visible
20 Feb -1.5 23:06:45 10° W 23:09:52 55° SSW 23:12:59 10° ESE visible
21 Feb 0.8 00:44:34 10° WSW 00:45:46 14° SW 00:45:46 14° SW visible
21 Feb 0.0 23:45:27 10° W 23:48:01 22° SSW 23:50:28 11° SSE visible
23 Feb 0.8 23:25:58 10° WSW 23:27:35 13° SSW 23:29:10 10° S visible
